www.pogodaiklimat.ru

Погода и климат >> Архив погоды >> Дания >> Мыс Kegnaes


ПОГОДА на Мысе Kegnaes

  • Прогноз погоды на Мысе Kegnaes
  • Монитор погоды на Мысе Kegnaes

АРХИВ ПОГОДЫ на Мысе Kegnaes

Время (UTC), дата Ветер
(напр.,м/с)
 
Видим.   Явления Облачность Т
(С)
Тd
(С)
f
(%)
Тe
(С)
Тes
(С)
Комфортность P
(гПа)
Po
(гПа)
Тmin
(С)
Tmax
(С)
R
(мм)
R24
(мм)
S
(см)
10 14.08 З 6 30 км в посл. час морось {ливн. осадки, дождь} 1/1 960 м
[]
+18.1 +10.3 60 +18 +21 1014.6 1012.4
11 14.08 З 6 40 км слаб. ливневой дождь 1/1 300 м
[]
+14.4 +11.5 83 +13 +17 1015.0 1012.8
12 14.08 З 4-10
{15}
35 км {ливн. осадки, дождь} 4/4 960 м
[]
+17.7 +13.0 74 +18 +23 1014.8 1012.6 0.0
13 14.08 З 7 35 км ясно +19.0 +9.7 55 +19 +23 1014.9 1012.7
14 14.08 З 6 40 км ясно +19.9 +10.5 55 +21 +24 комфорт 1014.6 1012.4
15 14.08 ЮЗ 9 35 км ясно +18.1 +11.4 65 +17 +18 1014.5 1012.3
16 14.08 З 8 40 км ясно +18.0 +11.1 64 +17 +18 1014.4 1012.1
17 14.08 З 8 45 км 1/1 1500 м
[]
+17.3 +10.3 63 +16 +16 1014.6 1012.4
18 14.08 З 4
{10}
50 км {ливн. осадки} ясно +16.4 +11.6 73 +16 +16 1014.5 1012.3 +13.2 +20.1 0.0
19 14.08 ЮЗ 7 50 км ясно +16.5 +11.4 72 +15 +15 1014.3 1012.1
20 14.08 ЮЗ 7 50 км ясно +16.3 +11.1 71 +15 +15 1014.2 1012.0
21 14.08 ЮЗ 5 45 км в посл. час морось {ливн. осадки, дождь} 1/0
[]
+16.0 +11.0 72 +15 +15 1013.9 1011.7 0.0
22 14.08 ЮЗ 4 50 км в посл. час дождь {ливн. осадки} 4/4 1500 м
[]
+16.2 +10.8 70 +16 +16 1013.2 1011.0
23 14.08 Ю 4 50 км 4/4 1500 м
[]
+16.2 +10.4 68 +16 +16 1012.9 1010.7
00 15.08 Ю 8 7000 м дымка {ливн. осадки, дождь} 4/0 2000 м
[]
+17.0 +12.3 74 +16 +16 1012.3 1010.0 0.0
01 15.08 Ю 11 50 км ясно +17.6 +11.4 67 +16 +16 1011.3 1009.1
02 15.08 Ю 11 40 км слаб. дождь 1/1 1500 м
[]
+17.7 +11.8 68 +16 +16 1010.7 1008.5
03 15.08 ЮЗ 8 24 км слаб. ливневой дождь 4/4 360 м
[]
+15.7 +11.0 74 +14 +14 1010.3 1008.1 0.0
04 15.08 Ю 2 22 км слаб. морось {дождь} 1/1 360 м
[]
+14.5 +10.9 79 +14 +14 1009.6 1007.4 0.4
05 15.08 Ю 7 17 км слаб. ливневой дождь {морось} 6/6 300 м
[]
+15.9 +12.1 78 +14 +14 1009.3 1007.0 0.1
06 15.08 Ю 9 45 км в посл. час дождь {ливн. осадки} 1/1 1380 м
[]
+15.4 +12.2 81 +13 +13 1008.7 1006.5 +14.4 +18.0 0.6
07 15.08 Ю 12 35 км 6/6 360 м
[]
+15.4 +13.1 86 +13 +13 1007.9 1005.7
08 15.08 Ю 12 18 км 9/9 180 м
[]
+15.3 +14.1 93 +13 +13 1007.3 1005.0
09 15.08 Ю 10 35 км 9/9 180 м
[]
+15.2 +14.1 93 +13 +13 1006.9 1004.7 0.1
10 15.08 Ю 9 30 км 9/9 270 м
[]
+16.3 +14.3 88 +15 +15 1006.5 1004.3
11 15.08 Ю 8 30 км 10/10 270 м
[]
+16.1 +14.4 90 +14 +14 1006.4 1004.2
12 15.08 Ю 8 29 км 10/10 240 м
[]
+16.5 +14.9 90 +15 +15 1006.4 1004.2
13 15.08 Ю 7 26 км 9/9 300 м
[]
+17.5 +15.4 87 +17 +17 1006.1 1003.9
14 15.08 Ю 7 26 км 9/9 450 м
[]
+18.6 +15.7 83 +19 +19 1006.0 1003.8
15 15.08 Ю 9 9000 м слаб. ливневой дождь 6/6 120 м
[]
+17.1 +16.1 94 +16 +16 1005.9 1003.7 0.0
16 15.08 Ю 7 6000 м морось {ливн. осадки} 9/9 180 м
[]
+17.2 +16.6 96 +16 +16 1005.9 1003.7 1
17 15.08 Ю 7 10 км в посл. час дождь {ливн. осадки} 1/1 300 м
[]
+17.8 +17.1 96 +17 +17 1006.1 1003.9 0.4
18 15.08 ЮЗ 8 22 км {ливн. осадки, дождь} 4/4 360 м
[]
+18.0 +16.4 90 +17 +17 1006.5 1004.3 +15.0 +19.5 2
19 15.08 З 8 24 км в посл. час дождь {ливн. осадки} 4/4 270 м
[]
+16.6 +15.5 93 +15 +15 1007.5 1005.3 3
20 15.08 З 8 20 км 9/9 540 м
[]
+16.4 +15.4 94 +15 +15 1008.1 1005.8
21 15.08 З 7 21 км {ливн. осадки, дождь} 1/1 540 м
[]
+16.3 +15.3 94 +15 +15 1008.8 1006.5 3
22 15.08 З 7 19 км ясно +16.0 +15.0 94 +14 +14 1009.2 1007.0
23 15.08 З 6 24 км ясно +16.2 +14.9 92 +15 +15 1009.5 1007.3
00 16.08 З 5 25 км {ливн. осадки, дождь} ясно +15.9 +14.8 93 +15 +15 1009.9 1007.6
01 16.08 ЮЗ 8 21 км 1/0
[]
+16.2 +15.1 93 +14 +14 1009.9 1007.7
02 16.08 З 6 28 км 1/1 240 м
[]
+16.0 +14.9 93 +15 +15 1010.3 1008.1
03 16.08 З 6 18 км 1/1 360 м
[]
+15.9 +14.9 94 +15 +15 1010.4 1008.2
04 16.08 З 6 20 км 1/1 540 м
[]
+15.7 +14.4 92 +14 +14 1010.9 1008.6
05 16.08 ЮЗ 7 5000 м дымка 4/4 450 м
[]
+15.9 +14.6 92 +14 +14 1011.2 1008.9
06 16.08 З 6 13 км {дымка} 9/9 240 м
[]
+16.2 +14.9 92 +15 +15 1011.8 1009.6 +15.5 +18.1
07 16.08 З 4 3900 м дымка 6/6 300 м
[]
+16.1 +14.3 89 +15 +17 1012.5 1010.3
08 16.08 СЗ 4 2200 м дымка {ливн. осадки, дождь} 4/4 120 м
[]
+16.1 +14.5 90 +15 +18 1013.2 1011.0
09 16.08 З 4 7000 м дымка {ливн. осадки, дождь} 1/1 360 м
[]
+17.7 +14.3 80 +17 +23 1013.3 1011.1 0.0
10 16.08 З 6 13 км в посл. час морось {ливн. осадки, дождь} 1/1 1260 м
[]
+18.6 +12.5 68 +19 +22 1013.4 1011.2
11 16.08 З 7 8000 м дымка ясно +19.2 +12.4 65 +20 +24 1013.5 1011.3
12 16.08 З 6 13 км {ливн. осадки, дождь} 6/6 1170 м
[]
+18.4 +11.0 62 +18 +20 1013.7 1011.5 0.1
13 16.08 З 7 7000 м дымка ясно +19.7 +10.9 57 +20 +23 1013.7 1011.5
14 16.08 З 6 13 км ясно +19.8 +10.2 54 +21 +24 комфорт 1013.7 1011.5
15 16.08 З 5 16 км {дымка} ясно +19.2 +10.6 57 +20 +23 1013.6 1011.4
16 16.08 З 5 14 км 1/1 1500 м
[]
+18.7 +11.1 61 +19 +20 1013.4 1011.2
17 16.08 ЮЗ 4 13 км 1/1 1440 м
[]
+18.0 +11.2 64 +18 +19 1013.1 1010.8
18 16.08 ЮЗ 3 7000 м дымка ясно +17.9 +12.1 69 +18 +18 1012.8 1010.6 +15.8 +20.2
19 16.08 Ю 4 5000 м дымка 4/4 1500 м
[]
+17.7 +12.9 73 +18 +18 1012.9 1010.6
20 16.08 Ю 5 5000 м дымка 1/1 1500 м
[]
+17.9 +13.5 75 +17 +17 1012.3 1010.1
21 16.08 ЮВ 8 7000 м дымка 1/1 1500 м
[]
+18.2 +14.5 79 +18 +18 1011.8 1009.6
22 16.08 Ю 9 8000 м дымка 1/0 2000 м
[]
+18.3 +14.7 80 +18 +18 1011.1 1008.8
23 16.08 Ю 10 5000 м дымка ясно +18.0 +15.0 83 +17 +17 1010.4 1008.2
00 17.08 Ю 10 12 км {дымка} ясно +17.9 +13.9 77 +17 +17 1009.5 1007.3
01 17.08 Ю 10 10 км морось {дождь} 4/4 330 м
[]
+17.4 +13.3 77 +16 +16 1009.1 1006.9
02 17.08 Ю 9 8000 м морось {дождь} 9/9 330 м
[]
+16.6 +13.6 82 +15 +15 1008.5 1006.3 0.3
03 17.08 Ю 9 6000 м морось {дождь} 9/9 300 м
[]
+16.1 +13.7 86 +14 +14 1008.0 1005.8 0.6
04 17.08 Ю 10 4500 м слаб. морось {дождь} 6/6 300 м
[]
+15.8 +14.0 89 +14 +14 1007.5 1005.3 0.7
05 17.08 Ю 11 6000 м морось {дождь} 6/6 420 м
[]
+15.9 +14.0 88 +14 +14 1006.9 1004.7 0.2
06 17.08 Ю 12 6000 м слаб. дождь {морось} 9/9 300 м
[]
+15.7 +14.2 91 +13 +13 1006.4 1004.1 +15.5 +18.4 2
07 17.08 Ю 12 9000 м дымка {дождь} 4/4 960 м
[]
+15.8 +13.9 88 +13 +13 1006.2 1004.0 0.1
08 17.08 Ю 11 8000 м слаб. морось {дождь} 9/9 240 м
[]
+15.9 +14.6 92 +14 +14 1005.7 1003.5
09 17.08 Ю 12 8000 м в посл. час морось {ливн. осадки, дождь} 9/9 360 м
[]
+16.8 +15.1 90 +15 +15 1005.5 1003.3 0.2
10 17.08 Ю 10 5000 м дымка 9/9 450 м
[]
+17.5 +15.0 85 +16 +16 1005.4 1003.2
11 17.08 Ю 10 22 км 9/9 480 м
[]
+17.9 +15.1 84 +17 +17 1005.3 1003.1
12 17.08 ЮЗ 9 17 км {ливн. осадки, дождь} 9/9 450 м
[]
+18.1 +15.6 85 +17 +17 1005.3 1003.1
13 17.08 ЮЗ 10 18 км в посл. час морось {ливн. осадки, дождь} 9/9 300 м
[]
+18.0 +16.1 89 +17 +17 1005.4 1003.2
14 17.08 ЮЗ 9 13 км 6/6 240 м
[]
+18.1 +16.6 91 +17 +18 1005.6 1003.4
15 17.08 ЮЗ 7 13 км {ливн. осадки, дождь} 4/4 300 м
[]
+18.4 +16.9 91 +18 +19 1005.6 1003.4 0.0
16 17.08 Ю 8 14 км в посл. час морось {ливн. осадки, дождь} 1/1 450 м
[]
+18.8 +17.0 89 +19 +20 1005.6 1003.4 0.1
17 17.08 Ю 8 15 км 1/1 700 м
[]
+18.8 +17.0 89 +19 +19 1005.5 1003.3
18 17.08 Ю 8 16 км {ливн. осадки, дождь} 4/4 720 м
[]
+18.9 +17.0 89 +19 +19 1005.6 1003.4 +15.6 +19.1 0.1
19 17.08 Ю 7 19 км 1/1 1260 м
[]
+17.5 +15.7 89 +17 +17 1005.6 1003.4
20 17.08 Ю 6 17 км 1/1 1230 м
[]
+17.2 +15.6 90 +16 +16 1005.5 1003.3
21 17.08 Ю 6 1600 м дымка 9/9 930 м
[]
+17.3 +15.3 88 +16 +16 1005.3 1003.1
22 17.08 ЮЗ 5 4800 м сильн. дождь {морось} 9/9 120 м
[]
+15.4 +14.8 96 +14 +14 1006.1 1003.9 6
23 17.08 Ю 4 н/о {дождь, морось} 9/9 750 м
[]
+15.4 +14.8 96 +14 +14 1005.4 1003.2 0.3
00 18.08 Ю 4 35 км {дождь, морось} 1/1 1500 м
[]
+15.7 +15.1 96 +15 +15 1006.1 1003.9 7
01 18.08 ЮЗ 5 17 км 4/4 1380 м
[]
+16.2 +15.5 96 +15 +15 1005.6 1003.4
02 18.08 З 4 8000 м дымка 6/6 120 м
[]
+16.2 +15.6 96 +16 +16 1005.5 1003.3
03 18.08 ЮЗ 4 7000 м дымка 6/6 120 м
[]
+16.1 +15.6 97 +15 +15 1004.9 1002.7
04 18.08 ЮЗ 5 6000 м дымка 1/1 90 м
[]
+16.1 +15.5 96 +15 +15 1004.7 1002.5
05 18.08 ЮЗ 5 9000 м дымка 6/6 150 м
[]
+16.1 +15.5 96 +15 +15 1005.2 1003.0
06 18.08 ЮЗ 4 8000 м дымка 10/10 120 м
[]
+16.0 +15.3 96 +15 +15 1005.0 1002.7 +15.1 +19.0
07 18.08 ЮЗ 3 11 км 9/9 180 м
[]
+16.3 +15.4 94 +16 +16 1004.7 1002.5
08 18.08 Ю 4 9000 м слаб. дождь 1/1 120 м
[]
+16.5 +15.5 94 +16 +19 1004.5 1002.3
09 18.08 Ю 7 9000 м слаб. ливневой дождь 4/4 150 м
[]
+17.0 +16.1 94 +16 +18 1004.5 1002.2 0.1
10 18.08 Ю 7 16 км слаб. морось 1/1 300 м
[]
+16.9 +15.6 92 +16 +18 1004.1 1001.9 0.2
11 18.08 ЮЗ 7 12 км слаб. морось 6/6 240 м
[]
+17.0 +15.4 90 +16 +17 1004.6 1002.4 0.2
12 18.08 Ю 7 13 км слаб. ливневой дождь 9/9 210 м
[]
+15.7 +14.1 90 +14 +14 1004.1 1001.9 0.6
13 18.08 Ю 6 35 км слаб. ливневой дождь 9/9 800 м
[]
+15.3 +13.7 90 +14 +14 1004.1 1001.9 0.4
14 18.08 Ю 6 30 км в посл. час морось {ливн. осадки} 6/6 180 м
[]
+15.2 +14.3 94 +14 +15 1004.3 1002.0 0.2
15 18.08 ЮЗ 4 30 км {ливн. осадки, дождь} 1/1 360 м
[]
+16.1 +14.3 89 +15 +18 1004.3 1002.1 0.6
16 18.08 ЮЗ 7 35 км 1/1 540 м
[]
+16.8 +14.4 86 +16 +16 1004.1 1001.9
17 18.08 ЮЗ 8 28 км 4/4 700 м
[]
+17.3 +14.0 81 +16 +16 1004.3 1002.1
18 18.08 ЮЗ 9 21 км слаб. ливневой дождь 4/4 300 м
[]
+16.9 +14.3 85 +15 +15 1004.7 1002.4 +15.0 +17.5 0.0
19 18.08 ЮЗ 8 26 км в посл. час морось {ливн. осадки} ясно +16.5 +14.3 87 +15 +15 1005.4 1003.2
20 18.08 ЮЗ 8 22 км ясно +16.3 +14.5 89 +15 +15 1006.0 1003.8
21 18.08 ЮЗ 9 21 км {ливн. осадки} ясно +15.6 +14.4 93 +14 +14 1006.8 1004.6 0.0
22 18.08 ЮЗ 7 19 км ясно +15.7 +14.5 93 +14 +14 1007.0 1004.8
23 18.08 ЮЗ 9 16 км 1/0
[]
+15.5 +14.5 94 +13 +13 1007.4 1005.2
00 19.08 ЮЗ 8 18 км {ливн. осадки} ясно +15.8 +14.7 93 +14 +14 1007.7 1005.4
01 19.08 ЮЗ 8 24 км ясно +15.4 +14.1 92 +13 +13 1007.8 1005.6
02 19.08 ЮЗ 8 13 км 1/1 1000 м
[]
+15.2 +14.2 94 +13 +13 1008.0 1005.8
03 19.08 Ю 10 11 км 1/1 660 м
[]
+15.1 +14.1 94 +13 +13 1008.4 1006.2
04 19.08 ЮЗ 9 8000 м дымка ясно +15.2 +14.2 94 +13 +13 1008.5 1006.3
05 19.08 ЮЗ 10 6000 м дымка 1/1 150 м
[]
+14.9 +14.2 96 +12 +12 1009.1 1006.9
06 19.08 ЮЗ 9 9000 м дымка 1/1 150 м
[]
+15.4 +14.3 93 +13 +13 1009.4 1007.2 +14.7 +17.0
07 19.08 ЮЗ 11 14 км 4/4 270 м
[]
+15.9 +14.4 91 +14 +14 1009.6 1007.4
08 19.08 З 4 30 км слаб. ливневой дождь 9/9 240 м
[]
+14.5 +13.0 91 +13 +14 1010.6 1008.4 0.5
09 19.08 ЮЗ 11 26 км {ливн. осадки, дождь} 4/4 420 м
[]
+16.8 +14.1 84 +15 +15 1010.6 1008.3 0.5
10 19.08 ЮЗ 12 24 км 1/1 600 м
[]
+17.7 +13.7 77 +16 +16 1010.7 1008.5
11 19.08 ЮЗ 11 26 км 1/1 450 м
[]
+18.5 +14.2 76 +18 +18 1011.3 1009.1
12 19.08 З 8 17 км ливневой дождь 1/1 360 м
[]
+18.1 +14.4 79 +17 +19 1011.9 1009.7 0.3
13 19.08 З 12 8000 м слаб. ливневой дождь 4/4 270 м
[]
+17.5 +14.8 84 +16 +16 1012.9 1010.7
14 19.08 ЮЗ 8 28 км слаб. ливневой дождь 1/1 210 м
[]
+18.1 +14.3 78 +17 +19 1013.5 1011.3 0.2
15 19.08 З 11
{14}
26 км {ливн. осадки, дождь} ясно +18.8 +12.6 67 +18 +18 1013.6 1011.4 0.2
16 19.08 З 9 27 км 1/1 1230 м
[]
+19.1 +13.5 70 +19 +20 1014.0 1011.8
17 19.08 ЮЗ 10 25 км 1/1 1500 м
[]
+18.5 +12.4 68 +18 +18 1014.4 1012.2
18 19.08 ЮЗ 10
{14}
29 км {ливн. осадки, дождь} 1/1 500 м
[]
+16.9 +13.9 82 +15 +15 1015.0 1012.8 +14.1 +19.6
19 19.08 ЮЗ 9 30 км ясно +15.6 +13.6 88 +13 +13 1015.4 1013.2
20 19.08 ЮЗ 9 23 км ясно +15.5 +13.8 90 +13 +13 1015.7 1013.4
21 19.08 ЮЗ 9 20 км ясно +15.2 +13.9 92 +13 +13 1016.0 1013.8
22 19.08 ЮЗ 8 21 км ясно +15.3 +13.7 90 +13 +13 1016.2 1014.0
23 19.08 ЮЗ 9 22 км ясно +15.1 +13.4 90 +13 +13 1016.4 1014.1
00 20.08 ЮЗ 9 17 км слаб. ливневой дождь 4/4 300 м
[]
+14.6 +12.3 86 +12 +12 1016.7 1014.5 0.3
01 20.08 ЮЗ 6 45 км {ливн. осадки} ясно +15.0 +12.4 84 +13 +13 1016.7 1014.5
02 20.08 ЮЗ 6 30 км ясно +14.6 +12.4 87 +13 +13 1017.1 1014.8
03 20.08 ЮЗ 8 24 км {ливн. осадки} ясно +14.5 +12.4 87 +12 +12 1017.0 1014.7 0.0
04 20.08 ЮЗ 9 н/о ясно +14.3 +12.6 90 +12 +12 1017.0 1014.7
05 20.08 ЮЗ 9 19 км ясно +14.4 +12.9 91 +12 +12 1017.3 1015.1
06 20.08 ЮЗ 10 22 км {ливн. осадки} ясно +14.5 +12.5 88 +12 +12 1017.7 1015.5 +14.0 +17.0
07 20.08 ЮЗ 9 21 км 1/1 570 м
[]
+15.3 +13.2 87 +13 +14 1018.1 1015.9
08 20.08 ЮЗ 10 25 км ясно +16.1 +13.4 84 +14 +14 1018.4 1016.2
09 20.08 ЮЗ 9 30 км 1/1 540 м
[]
+17.8 +13.9 78 +17 +17 1018.9 1016.7
10 20.08 ЮЗ 10 22 км слаб. дождь 1/1 570 м
[]
+17.5 +12.8 74 +16 +17 1019.5 1017.3
11 20.08 ЮЗ 6 26 км слаб. ливневой дождь 4/4 270 м
[]
+15.4 +11.3 77 +14 +16 1019.8 1017.6 0.7
12 20.08 ЮЗ 7 30 км {ливн. осадки, дождь} 1/0 2000 м
[]
+17.8 +13.8 77 +17 +20 1020.0 1017.8 0.7
13 20.08 ЮЗ 5 35 км 1/0
[]
+19.1 +12.9 67 +20 +25 1020.4 1018.2
14 20.08 З 6 35 км ясно +21.7 +12.5 56 +24 +28 комфорт 1020.6 1018.4
15 20.08 З 5 40 км ясно +20.4 +12.2 59 +22 +25 комфорт 1021.0 1018.8
16 20.08 З 6 40 км ясно +19.5 +12.5 64 +20 +21 1021.2 1019.0
17 20.08 З 5 45 км ясно +18.2 +11.3 64 +18 +19 1021.6 1019.4
18 20.08 З 6 40 км ясно +17.5 +11.4 67 +17 +17 1021.8 1019.6 +14.5 +21.9
19 20.08 ЮЗ 6 40 км ясно +16.9 +11.7 71 +16 +16 1022.5 1020.3
20 20.08 З 6 35 км ясно +16.3 +12.1 76 +15 +15 1022.7 1020.5
21 20.08 ЮЗ 6 35 км ясно +16.2 +12.8 80 +15 +15 1023.0 1020.8
22 20.08 ЮЗ 6 29 км ясно +15.7 +13.0 84 +14 +14 1023.3 1021.0
23 20.08 ЮЗ 7 28 км ясно +15.4 +13.1 86 +14 +14 1023.6 1021.3
00 21.08 ЮЗ 7 29 км {дымка} ясно +15.4 +13.1 86 +14 +14 1023.5 1021.2
01 21.08 ЮЗ 8 30 км ясно +15.6 +12.8 83 +14 +14 1023.5 1021.3
02 21.08 ЮЗ 7 29 км ясно +14.9 +12.6 86 +13 +13 1023.9 1021.7
03 21.08 ЮЗ 8 30 км ясно +14.5 +12.2 86 +12 +12 1024.2 1021.9
05 21.08 ЮЗ 7 30 км ясно +14.7 +12.5 87 +13 +13 1024.7 1022.5
06 21.08 З 5 35 км {дымка} ясно +15.0 +12.4 84 +14 +14 1025.5 1023.2 +14.0 +17.5
07 21.08 З 3 30 км ясно +15.0 +12.8 87 +14 +17 1026.0 1023.8
08 21.08 СЗ 3 45 км ясно +16.6 +11.8 73 +17 +22 1026.5 1024.3

 

Местоположение метеостанции Мыс Kegnaes (Дания): широта 54.85 долгота 9.98 высота над уровнем моря 17 м.

В архиве по умолчанию представлена погода на Мысе Kegnaes за последнюю неделю. Архивные данные за месяц целиком и за предыдущие месяцы, начиная с января 2011 года, Вы можете получить, выбрав интересующий диапазон дат из раскрывающегося списка и нажав кнопку "Ввод!".


*Определитесь, кто Вы:
робот инопланетянин человек

Внимание! Время в таблицах - всемирное. Для получения местного времени необходимо прибавить поправку, которая равна 1 ч.

Смотрите также архив погоды в соседних городах и на ближайших метеорологических станциях:

Погода в Ольпенице (Германия) (20 км)
Погода в Глюксбурге (Германия) (31 км)
Погода в Тосинге (Дания) (42 км)
Погода в Киль маяке (Германия) (43 км)
Погода в Торае (Дания) (45 км)
Погода в Шлезвиге (Германия) (45 км)
Погода в Шлезвиг аэропорту (Германия) (52 км)
Погода в Киле (Германия) (53 км)
Погода в Арслеве (Дания) (59 км)
Погода в Скрыдструпе (Дания) (62 км)

Пояснения к столбцам:

Ветер - указаны скорость ветра в м/с - средняя за 10 мин, порывы в срок и между сроками (в фигурных скобках) и направление, откуда дует ветер: С - северный, СВ - северо-восточный, В - восточный, ЮВ - юго-восточный, Ю - южный, ЮЗ - юго-западный, З - западный, СЗ - северо-западный.
Видимость - горизонтальная дальность видимости в метрах или километрах. При видимости от 1 до 10 км при отсутствии осадков обычно наблюдается дымка, при ухудшении видимости до 1 км и менее - туман. В сухую погоду видимость может ухудшаться дымом, пылью или мглою.
Явления - указаны атмосферные явления, наблюдавшиеся в срок или в последний час перед сроком; фигурными скобками обозначены явления, наблюдавшиеся между сроками (за 1-3 часа до срока); квадратными скобками обозначены град или гололедные отложения с указанием их диаметра в мм.
Облачность - указаны через наклонную черту общая и нижняя облачность в баллах и высота нижней границы облаков в метрах; квадратными скобками обозначены формы облаков: Ci - перистые, Cs - перисто-слоистые, Cc - перисто-кучевые, Ac - высококучевые, As - высокослоистые, Sc - слоисто-кучевые, Ns - слоисто-дождевые, Cu - кучевые, Cb - кучево-дождевые. Подробнее классификацию облаков см. в Атласе облаков (PDF).
T - Температура воздуха - температура, измеренная на высоте 2 м над землей.
Td - Температура точки росы - температура, при понижении до которой содержащийся в воздухе водяной пар достигнет насыщения.
f - Относительная влажность воздуха - влажноcть воздуха, измеренная на высоте 2 м над землей.
Te - Эффективная температура - температура, которую ощущает одетый по сезону человек в тени. Характеристика душности погоды. При расчете учитывается влияние влажности воздуха и скорости ветра на теплоощущения человека.
Tes - Эффективная температура на солнце - температура, которую ощущает человек, с поправкой на солнечный нагрев. Характеристика знойности погоды. Зависит от высоты солнца над горизонтом, облачности и скорости ветра. Ночью, в пасмурную погоду, а также при ветре 12 м/с и более поправка равна нулю.
P - Атмосферное давление - приведенное к уровню моря атмосферное давление.
Po - Атмосферное давление - измеренное на уровне метеостанции атмосферное давление.
Tmin - Минимальная температура - минимум температуры воздуха на высоте 2 м над землей.
Tmax - Максимальная температура - максимум температуры воздуха на высоте 2 м над землей.
R - Количество осадков - Количество выпавших осадков за период времени, мм. При наведении курсора мыши на число - период времени, за который выпало указанное количество осадков.
R24 - Количество осадков - Количество выпавших осадков за 24 часа, мм.
S - Снежный покров - Высота снежного покрова, см. При наведении курсора мыши на число - состояние снежного покрова и степень покрытия местности в баллах.